Lapse_Rate
7.4 6.5 6.5 6.5 6.5 6.5 6.5 6.5 6.5 6.5 6.5 6.5 6.5 6.5 6.5 6.9 7.2 7.0 7.2 7.4 7.7 7.9 8.6 8.9 9.1 9.3 9.2 9.2 9.2 9.1 8.8 9.1 9.2 7.7 7.6 7.4 7.3 9.2 8.6 8.6 9.6 9.2 9.1 8.2
6.5 6.5 6.5 6.5 6.5 6.5 6.5 6.5 6.5 6.5 6.5 6.5 6.5 6.5 6.5 6.5 6.7 7.1 7.2 7.4 7.7 8.0 8.3 8.6 8.8 9.0 9.1 9.0 9.1 9.0 9.0 9.0 8.2 7.4 7.9 8.2 7.1 8.3 7.4 6.0 6.9 9.3 9.1 8.5
6.5 6.5 6.5 6.5 6.5 6.5 6.5 6.5 6.5 6.5 6.5 6.5 6.5 6.5 6.5 6.5 7.0 7.2 7.5 7.7 7.9 7.9 8.0 8.3 8.4 8.7 9.0 8.9 9.0 9.0 8.8 9.0 7.8 8.1 7.8 6.9 6.7 6.6 6.5 6.1 6.8 8.2 9.2 8.6
6.5 6.7 6.5 6.5 6.5 6.5 6.5 6.5 6.5 6.5 6.5 6.5 6.5 6.5 6.5 6.5 6.5 6.5 7.1 7.4 7.7 7.9 8.1 8.3 8.4 8.6 8.8 9.0 9.2 8.9 8.7 8.4 8.1 7.7 8.5 6.9 5.9 5.8 5.4 5.3 5.8 6.8 7.7 8.0
6.5 6.5 6.5 6.5 6.5 6.5 6.5 6.5 6.5 6.5 6.5 6.5 6.5 6.5 6.5 6.5 6.5 6.5 6.7 7.3 7.7 7.9 8.2 8.3 8.5 8.6 8.8 9.1 9.2 8.5 8.2 8.2 8.0 7.6 7.7 6.0 6.2 6.0 6.6 6.6 6.8 7.0 6.8 7.5
6.5 7.1 6.5 6.5 6.5 6.5 6.5 6.5 6.5 6.5 6.5 6.5 6.5 6.5 6.5 6.5 6.5 6.5 6.7 7.3 7.6 8.0 8.3 8.5 8.1 8.1 8.9 9.2 9.2 9.2 8.5 7.4 8.8 8.8 8.7 5.7 5.9 5.4 6.9 6.8 6.5 6.3 6.4 6.5
6.5 6.5 6.5 6.7 6.5 6.5 6.5 6.5 6.5 6.5 6.5 6.5 6.5 6.5 6.5 6.5 6.5 6.5 6.5 7.2 7.7 8.1 8.3 8.3 7.4 8.5 8.7 8.9 9.0 9.2 8.9 7.1 9.0 9.0 7.8 6.7 8.1 7.7 7.6 8.1 6.7 6.2 6.9 6.3
6.5 6.5 6.5 6.5 6.5 6.5 6.5 6.5 6.5 6.5 6.5 6.5 6.5 6.5 6.5 6.5 7.0 7.2 7.4 7.5 7.9 8.0 8.3 8.4 5.5 8.7 8.7 8.9 9.0 9.1 8.6 8.1 8.0 8.7 8.9 7.5 6.6 7.4 7.9 6.5 7.8 8.1 8.4 6.9
6.5 6.5 6.5 6.5 6.5 6.5 6.5 6.5 6.5 6.5 6.5 6.5 6.5 6.5 6.5 6.5 6.5 6.8 7.1 7.4 7.5 7.9 8.2 8.4 8.2 8.8 8.8 8.9 8.9 9.1 8.6 8.8 8.7 9.0 8.7 7.9 6.1 5.2 6.7 6.5 6.3 6.8 6.8 6.4
6.5 6.5 6.5 6.5 6.7 6.6 6.5 6.5 6.5 6.5 6.5 6.5 6.5 6.5 6.5 6.5 6.5 6.5 6.6 7.0 7.5 7.9 8.1 8.5 8.5 8.7 8.9 9.0 9.1 9.2 9.1 8.4 8.8 9.2 8.7 8.3 7.2 5.2 6.6 6.9 6.7 6.5 6.3 7.0
6.5 6.5 6.5 6.5 6.5 6.5 6.5 6.5 6.5 6.5 6.5 6.5 6.5 6.5 6.5 6.5 6.5 6.5 6.6 7.3 7.6 7.9 8.0 8.0 8.4 8.9 8.9 8.9 9.1 8.9 9.2 8.8 8.5 7.4 8.8 9.0 7.8 4.9 6.0 5.9 6.6 6.7 7.1 7.0
6.5 6.5 6.5 6.5 6.5 6.5 6.5 6.5 6.5 6.5 6.5 6.5 6.5 6.5 6.5 6.5 6.5 6.9 7.1 7.4 7.8 8.1 7.9 6.2 7.7 8.8 8.8 9.0 9.1 9.1 9.1 9.0 7.7 7.9 8.9 9.1 8.9 6.7 6.6 7.3 6.4 7.5 7.3 8.0
6.5 6.5 6.5 6.5 6.5 6.5 6.5 6.5 6.5 6.5 6.5 6.5 6.5 6.5 6.5 6.4 6.5 7.1 7.2 7.5 7.7 7.9 7.7 8.3 8.4 8.6 8.7 8.8 8.9 4.8 6.1 9.2 8.5 8.8 8.5 9.1 8.9 8.9 8.4 7.8 7.2 7.2 6.7 7.0
5.9 6.5 6.5 6.5 6.5 6.5 6.5 6.5 6.5 6.5 6.5 6.5 6.5 6.5 6.5 6.5 6.5 6.8 7.3 7.6 7.7 7.8 8.0 8.2 8.3 8.4 8.6 8.8 8.8 8.3 8.3 9.4 9.3 8.4 8.2 9.0 9.1 9.1 9.0 9.0 8.7 7.3 7.0 6.7
6.5 6.5 6.5 6.5 6.5 6.5 6.5 6.5 6.5 6.5 6.5 6.5 6.5 6.5 6.5 6.5 6.5 7.0 7.5 7.7 7.7 7.8 8.0 7.9 7.8 8.2 8.6 8.7 8.6 9.0 9.1 9.2 9.3 8.7 7.8 8.9 9.3 9.3 9.2 9.0 8.6 8.5 7.3 7.4
6.5 6.5 6.5 6.5 6.5 6.5 6.5 6.5 6.5 6.5 6.5 6.5 6.5 6.5 6.5 7.2 7.3 7.2 7.4 7.6 7.5 7.7 7.9 8.1 8.3 8.4 8.5 8.6 8.6 8.0 8.4 9.1 9.3 9.2 9.1 9.2 9.2 9.2 8.5 9.3 9.3 9.2 9.1 9.0
6.5 6.5 6.5 6.5 6.5 6.5 6.5 6.5 6.5 6.5 6.5 6.5 6.5 6.5 6.5 6.5 6.6 7.1 7.3 7.6 7.6 7.9 8.1 8.2 8.3 8.5 8.6 8.8 8.9 8.8 8.7 8.6 8.9 9.1 9.2 9.2 9.2 9.2 8.7 8.1 8.6 8.7 9.1 9.0
6.5 6.5 6.5 6.5 6.5 6.5 6.5 6.5 6.5 6.5 6.5 6.5 6.5 6.5 6.5 6.8 7.4 7.7 7.9 7.8 7.9 8.1 8.2 8.3 8.6 8.6 8.8 8.9 8.9 8.8 8.2 8.7 7.8 8.9 9.1 9.1 9.0 8.8 9.2 9.1 8.4 7.7 7.6 6.7
6.5 6.5 6.5 6.5 6.5 6.5 6.5 6.5 6.5 6.5 6.5 6.5 6.5 6.5 7.0 7.5 7.8 7.4 8.1 8.3 8.2 8.3 8.5 8.5 8.7 8.6 7.9 6.7 5.0 5.9 7.1 8.2 8.7 8.0 8.8 8.8 7.9 7.5 7.2 7.3 7.1 6.8 7.1 6.3
6.5 6.5 6.5 6.5 6.5 6.5 6.5 6.5 7.1 6.5 6.5 6.5 6.7 6.5 6.7 7.4 6.5 6.5 8.1 8.5 8.5 8.6 8.5 7.0 5.0 4.1 3.5 3.0 4.6 5.8 6.7 7.1 8.0 6.9 6.1 6.9 5.4 3.3 2.4 2.4 3.3 5.1 6.0 6.5
6.5 6.5 6.5 6.5 6.5 6.5 6.5 6.6 7.2 6.5 6.5 7.0 7.1 7.1 7.1 6.5 7.3 7.8 8.3 8.4 8.6 8.6 7.7 5.0 4.6 4.1 3.4 2.4 2.7 2.4 2.1 2.6 2.7 2.8 1.8 1.0 0.4 0.6 0.6 1.3 1.7 4.1 4.7 4.5
6.5 6.5 6.5 6.5 6.5 6.5 6.9 6.8 6.5 6.7 7.2 7.4 7.4 7.6 7.6 7.9 8.1 8.2 8.3 8.4 8.3 7.8 6.6 4.6 3.5 3.4 3.1 2.8 1.7 1.1 0.5 0.6 1.3 1.0 0.7 0.3 -0.1 -0.2 -0.2 0.1 0.2 0.8 0.5 0.7
6.5 6.5 6.5 6.5 6.5 6.7 7.4 7.1 7.6 7.8 7.4 7.5 7.6 8.0 8.1 8.0 8.1 8.3 8.1 7.9 7.7 6.2 4.4 3.4 2.8 3.1 2.8 2.0 2.0 1.0 0.9 1.0 1.0 0.2 -0.0 -0.1 0.0 -0.0 0.0 0.3 0.9 1.1 1.9 2.1
6.5 6.9 6.5 6.5 6.5 6.6 7.3 7.8 8.0 8.0 7.7 8.0 8.2 8.3 8.3 8.1 8.3 8.3 8.0 7.9 6.4 5.2 3.9 3.2 3.1 3.0 3.0 3.3 2.8 2.2 2.1 2.0 1.5 1.2 1.5 2.3 2.8 3.2 3.8 4.0 4.3 4.3 3.5 3.5
6.6 6.5 6.5 6.5 6.5 7.0 7.4 7.7 7.8 7.9 8.2 8.2 8.4 8.4 8.4 8.4 8.3 8.2 7.9 7.4 5.7 4.6 4.3 4.1 3.7 3.5 3.6 4.9 4.9 5.4 5.3 5.0 4.4 4.6 4.6 4.7 5.6 5.3 5.0 5.3 4.9 3.3 2.9 3.4
6.7 6.5 6.5 6.5 6.7 6.9 7.1 7.9 8.3 8.1 8.1 8.3 8.3 8.2 8.5 8.4 8.1 8.2 7.9 7.3 6.0 5.2 5.0 4.6 4.4 4.7 4.7 5.7 5.8 6.9 6.6 5.5 5.6 6.1 6.5 6.6 6.9 7.0 6.3 5.8 5.7 1.4 1.6 1.0
Wind_Speed
15 11 16 17 16 16 16 12 10 2 4 8 12 5 10 8 10 8 8 10 9 11 14 16 14 12 11 10 10 10 10 10 7 5 5 6 7 8 6 7 12 13 16 17
9 17 17 14 13 13 14 12 13 12 4 8 12 13 12 12 10 6 10 8 11 10 11 13 12 11 11 10 10 10 10 10 7 5 5 4 4 6 6 4 10 16 16 17
17 3 14 15 14 14 14 14 12 13 9 10 14 17 19 3 7 4 4 6 10 9 13 13 9 10 9 9 10 11 10 10 6 4 5 4 4 5 5 6 6 10 17 15
14 18 8 10 16 14 14 14 11 12 10 13 8 12 9 17 9 11 9 7 8 7 7 8 11 9 8 8 7 7 7 3 1 2 7 3 4 6 4 5 6 8 13 11
14 11 15 14 14 15 13 2 7 11 14 14 13 7 3 10 8 8 8 8 6 5 6 11 10 9 7 6 5 7 4 2 2 1 3 4 6 5 6 7 9 8 8 10
18 4 9 14 12 12 12 6 9 10 12 13 15 15 5 4 3 6 4 5 7 7 11 14 10 6 5 5 4 3 4 4 2 2 4 2 8 7 6 6 6 6 6 6
16 16 13 10 13 13 13 12 9 10 11 14 8 5 7 4 6 1 8 8 9 10 13 13 10 7 5 5 4 1 5 3 2 3 3 4 8 7 8 7 3 6 5 6
13 14 20 14 15 11 18 15 12 12 5 5 8 8 3 8 10 6 4 6 11 10 15 11 10 7 6 7 5 1 7 2 1 1 3 6 7 6 5 4 3 4 3 4
10 12 3 19 16 18 13 16 19 18 14 11 12 6 14 9 8 8 8 8 8 10 15 12 12 10 7 7 5 4 5 3 2 2 2 2 5 5 5 5 3 2 3 4
10 13 10 13 12 19 19 13 13 10 15 12 11 9 1 14 12 11 9 8 9 9 15 13 11 10 7 6 5 4 2 5 1 1 0 4 4 6 5 8 6 7 5 5
16 7 8 12 12 15 12 13 14 17 12 12 12 4 12 20 12 14 10 10 11 11 13 10 11 8 5 6 4 2 4 3 1 5 2 3 7 4 4 6 7 6 6 6
16 9 13 14 16 17 16 18 17 10 13 9 9 8 8 8 9 13 12 9 11 13 9 11 9 10 7 5 4 6 2 4 2 3 1 2 6 5 2 5 5 4 8 6
14 9 11 15 13 7 10 16 18 18 14 7 8 13 8 9 9 10 12 9 8 13 12 9 7 7 5 4 4 7 7 3 3 3 2 1 5 4 4 4 5 5 5 7
5 12 15 12 8 5 18 16 16 13 12 14 10 5 7 12 18 15 13 11 10 10 9 9 7 5 3 1 6 5 8 4 7 2 4 3 4 4 4 5 4 5 7 8
9 14 13 18 11 9 9 15 18 18 19 16 6 7 9 13 12 16 15 14 11 10 9 8 6 5 5 4 2 4 3 3 3 7 10 6 3 4 6 6 7 7 7 5
13 12 15 18 14 9 10 13 15 14 18 16 16 14 23 31 15 14 15 13 12 11 10 6 4 1 1 5 6 5 6 5 5 5 5 7 5 5 7 7 8 8 8 6
14 11 14 15 14 19 14 15 17 18 17 16 10 7 17 15 14 12 11 12 13 11 7 3 1 1 3 4 5 8 4 5 6 7 8 9 6 6 8 7 7 6 8 7
9 12 13 13 14 16 1 5 11 8 12 9 2 0 11 14 12 11 9 13 10 8 5 3 3 4 6 9 9 9 10 9 5 8 10 9 9 8 7 6 7 7 7 10
13 11 12 14 13 13 7 4 3 5 11 8 4 7 18 20 17 11 8 7 7 6 4 4 6 7 8 9 9 9 8 9 10 7 9 9 8 6 7 8 8 8 9 10
14 12 13 13 16 19 10 10 4 2 7 6 7 11 18 16 8 7 10 9 7 5 5 5 6 7 8 9 10 8 6 9 9 1 8 12 13 11 12 10 10 9 9 11
15 13 17 15 14 9 12 7 2 8 3 4 2 7 12 10 5 15 10 8 7 5 6 7 7 7 8 9 8 8 10 9 11 13 15 14 14 14 12 10 9 9 10 11
16 7 14 16 17 19 7 5 6 9 5 4 6 14 15 15 15 13 10 8 8 8 7 7 7 8 8 9 8 10 11 9 11 13 15 15 13 11 9 12 10 11 12 11
1 4 6 7 4 7 6 9 6 6 7 6 8 11 12 13 12 11 9 9 8 7 7 6 7 9 9 10 9 12 10 10 11 14 15 14 13 11 11 12 11 9 8 7
7 6 11 6 7 7 7 6 7 5 8 7 9 11 10 12 11 11 9 8 8 7 7 7 8 9 11 10 11 12 12 12 14 16 15 13 12 13 11 8 8 7 8 7
2 6 13 4 9 7 6 8 13 10 8 9 9 10 10 12 11 11 10 9 8 8 8 7 8 9 10 9 11 10 11 12 14 15 14 12 11 13 12 12 8 8 7 5
7 6 8 3 6 10 15 11 13 12 11 9 11 11 10 12 11 11 10 10 9 9 9 10 10 12 11 11 10 11 12 14 15 16 12 11 11 10 10 10 11 17 13 12
Wind_Direction
199 215 223 234 221 270 298 292 305 229 255 284 262 323 259 159 208 201 195 177 197 208 199 185 193 208 193 190 195 204 200 196 205 203 204 222 223 258 286 299 259 205 217 226
192 233 241 241 257 248 253 257 256 252 227 255 272 273 259 174 217 250 181 212 190 193 218 189 181 199 204 192 202 209 214 203 205 221 218 229 239 261 262 236 251 250 218 223
230 189 219 238 235 243 236 249 247 254 191 245 260 259 248 353 181 194 238 227 199 208 191 195 171 201 202 207 202 216 208 224 213 236 235 235 260 248 244 244 241 232 228 217
232 251 193 228 234 231 244 219 255 274 260 264 183 288 168 220 186 182 207 214 219 194 194 169 167 186 197 202 203 202 214 136 203 261 277 300 254 267 248 246 236 228 224 215
219 220 235 231 227 222 249 175 261 253 251 259 267 243 221 193 236 216 181 171 212 129 200 144 159 156 184 183 174 120 98 113 115 270 296 292 297 315 282 252 244 233 219 209
255 176 254 230 218 224 243 212 237 241 249 246 228 253 283 34 242 81 110 153 141 137 125 120 113 128 167 133 98 95 118 72 337 320 300 277 281 279 277 250 232 223 204 202
221 227 225 236 221 196 222 199 221 216 224 235 136 232 281 134 96 76 148 165 148 130 125 125 137 151 160 109 68 57 77 82 358 16 38 319 307 315 308 283 224 182 199 193
210 214 207 188 231 198 207 222 239 221 280 184 187 233 141 71 132 160 184 172 132 168 125 132 113 183 131 120 107 96 76 47 171 154 335 348 19 340 357 5 152 196 190 196
242 243 146 195 207 239 186 226 245 276 281 267 192 200 150 124 156 152 175 167 159 170 130 155 154 146 144 121 125 73 102 74 79 179 287 341 37 359 26 10 41 154 164 179
257 267 171 203 222 216 246 194 230 238 262 275 234 262 294 179 167 158 158 165 157 166 139 165 140 128 125 128 117 122 101 118 39 317 108 35 80 20 61 50 60 76 90 111
234 232 211 147 215 207 209 227 236 243 231 274 259 223 108 287 147 155 156 158 159 169 161 148 127 129 129 110 110 133 117 112 159 324 313 70 105 83 8 69 58 80 94 103
220 227 250 195 208 220 231 210 235 243 230 276 354 1 156 56 137 143 144 159 167 161 160 123 134 159 161 140 116 112 41 136 142 282 280 120 129 139 15 102 115 63 94 97
208 232 233 249 208 198 247 249 216 229 255 258 141 250 223 119 169 147 136 146 157 124 130 145 149 149 146 109 105 74 257 135 161 221 216 178 178 165 163 150 127 117 109 122
315 223 230 224 265 260 199 244 226 238 240 243 200 289 279 191 146 134 132 140 115 134 149 169 159 150 172 120 129 179 256 244 151 188 252 175 174 157 166 155 170 126 145 133
231 237 242 259 268 270 281 199 234 224 242 257 255 286 262 9 136 132 130 125 141 153 178 141 171 179 209 237 180 192 217 212 209 175 234 156 136 163 131 119 118 105 120 122
213 237 259 267 246 234 253 264 271 261 236 252 283 312 116 209 124 130 141 145 156 151 118 117 87 65 322 313 304 244 192 216 200 228 210 149 162 134 126 125 124 127 122 123
227 234 247 249 241 248 220 236 243 245 261 273 270 58 118 126 125 124 135 157 133 130 141 170 190 312 325 308 303 293 290 212 227 202 208 159 191 165 161 160 168 139 125 122
260 232 258 254 239 237 298 39 326 284 255 259 93 222 155 126 110 117 128 108 126 140 134 92 7 350 349 340 326 323 305 284 238 207 205 175 186 180 188 168 99 86 80 64
252 261 230 255 252 257 142 182 161 236 257 222 231 165 128 114 110 88 103 127 107 92 70 26 2 347 339 332 320 291 264 259 233 218 193 182 124 107 91 78 89 87 89 80
223 232 266 246 238 246 279 82 51 77 242 124 195 176 145 157 189 144 155 140 120 87 58 29 10 11 4 349 336 312 276 250 224 126 73 91 96 87 72 55 50 63 78 82
212 227 228 234 253 249 105 113 122 236 73 39 254 162 167 180 54 133 140 118 103 94 72 51 41 28 14 14 29 40 59 51 72 78 82 78 77 80 74 65 45 61 77 87
230 230 225 229 228 228 91 186 261 73 82 64 79 73 90 108 118 129 128 120 114 95 74 57 55 46 36 45 62 62 58 61 81 88 90 86 85 86 83 83 77 74 75 71
165 216 301 354 57 68 32 71 81 102 103 104 112 110 121 127 129 127 125 124 97 88 78 66 70 66 56 55 69 80 69 72 81 85 84 87 87 88 93 91 86 88 77 79
343 201 247 132 139 102 120 121 112 104 102 120 107 127 133 128 127 123 128 114 106 102 98 90 85 78 78 76 82 85 87 89 90 89 90 90 92 91 85 81 80 84 84 83
96 40 290 225 118 126 122 111 99 111 119 118 119 114 127 128 125 126 123 111 111 110 106 105 103 96 79 79 86 100 102 101 97 95 91 86 85 84 82 75 76 78 63 87
228 214 210 347 244 196 143 130 127 132 134 119 122 121 120 127 128 131 119 121 122 119 114 109 103 99 97 99 100 108 111 110 108 104 103 107 110 110 108 101 88 59 65 70